Weather in Sakhnovshchyna

Ukraine / Kharkiv Region     49˚08′59″N   35˚52′24″E
temp.,
°C
wind,
m/s
gust,
m/s
humid.,
%
clouds,
%
prec.,
mm/h
press.,
hPa
HPBL,
m
2 december, wed
wed223:00e71190100 0.2 1028556
02:00−1˚e71178100 0.3 1028539
05:00−2˚e6972100 0.0 1029542
08:00−2˚e698193 0.0 1029503
11:00ese697998 0.0 1030554
14:00e687599 0.0 1029538
17:00−1˚e6977100 0.0 1029549
20:00−1˚e61080100 0.0 1029429
3 december, thu
thu323:00ese5985100 0.0 1029531
02:00ese5986100 0.1 1029432
05:00ese589496 0.3 1028348
08:00ese589798 1.6 1029287
11:00ese5795100 0.3 1028300
14:00+1˚ese4696100 0.8 1028261
17:00+2˚ese4798100 0.1 1028249
20:00+1˚se3697100 0.1 1028266
4 december, fri
fri423:00+2˚se3597100 0.0 1028269
02:00+2˚se3697100 0.0 1028290
05:00+2˚ese4696100 0.0 1028333
08:00+1˚ese579299 0.0 1028363
11:00+2˚ese5887100 0.0 1028431
14:00+2˚ese5885100 0.0 1028393
17:00+1˚ese6988100 0.0 1028435
20:00+1˚ese61086100 0.0 1029516
5 december, sat
sat523:00+1˚ese61085100 0.0 1029535
02:00+1˚ese6986100 0.0 1030512
05:00ese6108499 0.0 1030436
08:00−1˚e6108497 0.0 1031378
11:00−1˚e6982100 0.0 1031425
14:00e6107686 0.0 1030453
17:00−3˚e611813 0.0 1032419
20:00−4˚e611711 0.0 1032429
6 december, sun
sun623:00−4˚e611670 0.0 1033415
02:00−5˚e611670 0.0 1033355
05:00−6˚e611670 0.0 1033346
08:00−7˚e711640 0.0 1034350
11:00−4˚e711520 0.0 1033402
14:00−4˚e711530 0.0 1032429
17:00−7˚e712710 0.0 1032405
20:00−8˚e712720 0.0 1033421